EW3307 Weather Reports


time (UTC)temp
C
wind
direction
speed
KPH
gust
KPH
rain 1hr
cm
rain 24hr
cm
rain mn
cm
humidity
%
barometer
mb
20260502130156 23 178 1.6 3.2 0.00 0.00 0.00 25 1012.4
20260502123150 23 53 4.8 8.0 0.00 0.00 0.00 24 1012.4
20260502122149 24 76 3.2 4.8 0.00 0.00 0.00 24 1012.1
20260502121144 24 41 4.8 8.0 0.00 0.00 0.00 24 1012.2
20260502120144 24 208 8.0 14.5 0.00 0.00 0.00 24 1011.8
20260502115143 24 82 6.4 9.7 0.00 0.00 0.00 24 1012.0
20260502114143 24 212 8.0 11.3 0.00 0.00 0.00 24 1011.9
20260502113138 25 93 3.2 3.2 0.00 0.00 0.00 24 1011.7
20260502112133 25 160 4.8 8.0 0.00 0.00 0.00 23 1011.8
20260502111128 25 286 1.6 3.2 0.00 0.00 0.00 23 1011.8
20260502110122 25 192 3.2 3.2 0.00 0.00 0.00 23 1011.9
20260502105117 25 240 4.8 8.0 0.00 0.00 0.00 23 1012.1
20260502104117 25 31 6.4 12.9 0.00 0.00 0.00 23 1011.8
20260502103113 25 98 1.6 3.2 0.00 0.00 0.00 23 1011.9
20260502102112 25 280 4.8 9.7 0.00 0.00 0.00 23 1012.0
20260502101108 25 306 3.2 4.8 0.00 0.00 0.00 23 1011.9
20260502100104 25 165 1.6 3.2 0.00 0.00 0.00 23 1011.9
20260502091044 25 161 3.2 4.8 0.00 0.00 0.00 24 1012.0
20260502071014 25 151 0.0 0.0 0.00 0.00 0.00 25 1011.8
20260502070009 23 145 1.6 3.2 0.00 0.00 0.00 26 1011.9
20260502065005 23 156 0.0 0.0 0.00 0.00 0.00 25 1012.0
20260502064006 23 147 0.0 0.0 0.00 0.00 0.00 25 1011.8
20260502063001 23 133 0.0 0.0 0.00 0.00 0.00 25 1011.7
20260502061956 23 156 0.0 0.0 0.00 0.00 0.00 27 1011.6
20260502060955 23 140 0.0 0.0 0.00 0.00 0.00 26 1011.6
20260502055954 24 145 0.0 0.0 0.00 0.00 0.00 25 1011.3
20260502054952 23 152 0.0 0.0 0.00 0.00 0.00 26 1011.4
20260502053952 23 156 0.0 0.0 0.00 0.00 0.00 27 1011.2
20260502052952 23 153 0.0 0.0 0.00 0.00 0.00 28 1011.2
20260502051949 23 153 0.0 0.0 0.00 0.00 0.00 28 1011.2
20260502050949 23 152 0.0 0.0 0.00 0.00 0.00 28 1011.0
20260502045949 23 146 0.0 0.0 0.00 0.00 0.00 29 1011.1
20260502044948 23 146 0.0 0.0 0.00 0.00 0.00 29 1011.3
20260502043947 23 149 0.0 0.0 0.00 0.00 0.00 29 1011.2
20260502042944 23 143 0.0 0.0 0.00 0.00 0.00 29 1010.8
20260502041944 24 146 0.0 1.6 0.00 0.00 0.00 29 1010.7
20260502040944 24 142 0.0 0.0 0.00 0.00 0.00 28 1010.8
20260502035943 25 135 0.0 0.0 0.00 0.00 0.00 27 1010.6
20260502034938 25 149 0.0 0.0 0.00 0.00 0.00 27 1010.4
20260502033934 25 150 0.0 0.0 0.00 0.00 0.00 27 1010.2
20260502032933 25 140 0.0 0.0 0.00 0.00 0.00 27 1010.4
20260502031933 25 143 0.0 0.0 0.00 0.00 0.00 27 1010.3
20260502030929 25 143 0.0 0.0 0.00 0.00 0.00 26 1010.1
20260502025925 26 144 0.0 0.0 0.00 0.00 0.00 26 1009.9
20260502024925 25 149 0.0 0.0 0.00 0.00 0.00 27 1009.8
20260502023921 26 153 0.0 0.0 0.00 0.00 0.00 27 1009.5
20260502022921 27 155 0.0 0.0 0.00 0.00 0.00 25 1009.4
20260502021921 27 156 0.0 0.0 0.00 0.00 0.00 24 1009.5
20260502020915 28 149 0.0 0.0 0.00 0.00 0.00 24 1009.4
20260502015915 28 153 0.0 0.0 0.00 0.00 0.00 23 1009.2
20260502014915 29 156 0.0 0.0 0.00 0.00 0.00 22 1009.4
20260502013914 30 197 0.0 1.6 0.00 0.00 0.00 22 1009.2
20260502012912 31 152 0.0 0.0 0.00 0.00 0.00 22 1009.3
20260502011908 31 134 1.6 1.6 0.00 0.00 0.00 21 1009.1
20260502010907 31 152 0.0 0.0 0.00 0.00 0.00 21 1009.3
20260502005906 32 155 0.0 1.6 0.00 0.00 0.00 20 1009.2
20260502004901 32 173 0.0 0.0 0.00 0.00 0.00 20 1009.3
20260502003900 31 162 3.2 3.2 0.00 0.00 0.00 20 1009.1
20260502002859 31 179 0.0 0.0 0.00 0.00 0.00 21 1009.3
20260502001854 31 249 4.8 8.0 0.00 0.00 0.00 21 1009.3
20260502000849 32 217 1.6 3.2 0.00 0.00 0.00 20 1009.4
20260501235849 32 120 3.2 4.8 0.00 0.00 0.00 21 1009.4
20260501234846 33 229 1.6 1.6 0.00 0.00 0.00 21 1009.2
20260501233842 32 145 0.0 1.6 0.00 0.00 0.00 21 1009.4
20260501232840 32 181 1.6 3.2 0.00 0.00 0.00 21 1009.3
20260501231835 33 184 1.6 1.6 0.00 0.00 0.00 21 1009.5
20260501230831 32 122 0.0 0.0 0.00 0.00 0.00 22 1009.8
20260501225826 32 255 1.6 3.2 0.00 0.00 0.00 20 1009.5
20260501224826 32 264 3.2 4.8 0.00 0.00 0.00 21 1009.7
20260501223825 32 170 3.2 3.2 0.00 0.00 0.00 21 1009.8
20260501222822 33 266 4.8 8.0 0.00 0.00 0.00 21 1009.9
20260501221822 33 239 1.6 1.6 0.00 0.00 0.00 22 1010.1
20260501220818 32 210 0.0 1.6 0.00 0.00 0.00 23 1010.1
20260501215817 32 308 3.2 4.8 0.00 0.00 0.00 22 1010.0
20260501214815 32 160 0.0 0.0 0.00 0.00 0.00 22 1010.3
20260501213812 32 174 0.0 0.0 0.00 0.00 0.00 23 1010.6
20260501212810 33 154 1.6 1.6 0.00 0.00 0.00 23 1010.4
20260501211810 32 163 0.0 1.6 0.00 0.00 0.00 21 1011.0
20260501210810 33 170 1.6 1.6 0.00 0.00 0.00 21 1011.1
20260501205809 33 246 3.2 4.8 0.00 0.00 0.00 21 1011.0
20260501204809 32 157 0.0 0.0 0.00 0.00 0.00 21 1011.1
20260501203808 31 163 1.6 1.6 0.00 0.00 0.00 20 1011.2
20260501202808 31 164 1.6 1.6 0.00 0.00 0.00 22 1011.5
20260501201808 31 255 0.0 0.0 0.00 0.00 0.00 23 1011.7
20260501200806 31 89 1.6 1.6 0.00 0.00 0.00 25 1011.4
20260501195801 32 164 1.6 3.2 0.00 0.00 0.00 24 1011.7
20260501194759 30 189 0.0 1.6 0.00 0.00 0.00 25 1011.8
20260501193757 31 159 1.6 3.2 0.00 0.00 0.00 25 1011.9
20260501192753 30 249 1.6 1.6 0.00 0.00 0.00 26 1011.9
20260501191753 30 261 1.6 1.6 0.00 0.00 0.00 26 1012.1
20260501190753 31 87 3.2 3.2 0.00 0.00 0.00 26 1012.4
20260501185750 30 174 0.0 1.6 0.00 0.00 0.00 27 1012.4
20260501184748 30 174 1.6 3.2 0.00 0.00 0.00 26 1012.5
20260501183746 30 224 1.6 1.6 0.00 0.00 0.00 27 1012.7
20260501182745 30 117 1.6 1.6 0.00 0.00 0.00 28 1012.8
20260501181744 30 143 1.6 1.6 0.00 0.00 0.00 28 1013.1
20260501180740 29 116 0.0 1.6 0.00 0.00 0.00 28 1013.3
20260501175738 29 128 1.6 1.6 0.00 0.00 0.00 28 1013.5
20260501174737 28 155 1.6 1.6 0.00 0.00 0.00 29 1013.5
20260501173732 28 153 0.0 0.0 0.00 0.00 0.00 29 1013.5
20260501172731 28 171 0.0 0.0 0.00 0.00 0.00 30 1013.4
20260501171728 28 143 0.0 1.6 0.00 0.00 0.00 31 1013.5
20260501170728 28 163 0.0 0.0 0.00 0.00 0.00 31 1013.6
20260501165728 28 156 0.0 1.6 0.00 0.00 0.00 31 1013.5
20260501164723 27 123 1.6 1.6 0.00 0.00 0.00 32 1013.4
20260501163722 27 145 0.0 1.6 0.00 0.00 0.00 32 1013.4
20260501162721 27 145 0.0 0.0 0.00 0.00 0.00 33 1013.5
20260501161721 27 153 1.6 3.2 0.00 0.00 0.00 33 1013.4
20260501160720 26 146 0.0 0.0 0.00 0.00 0.00 33 1013.7
20260501155720 26 108 0.0 1.6 0.00 0.00 0.00 35 1013.5
20260501154719 25 153 0.0 1.6 0.00 0.00 0.00 36 1013.3
20260501153719 26 145 0.0 0.0 0.00 0.00 0.00 35 1013.1
20260501152719 25 145 1.6 3.2 0.00 0.00 0.00 36 1012.9
20260501151719 25 156 0.0 1.6 0.00 0.00 0.00 36 1013.1
20260501150718 24 145 1.6 1.6 0.00 0.00 0.00 37 1013.1
20260501145716 23 140 0.0 0.0 0.00 0.00 0.00 37 1012.7
20260501144716 23 146 0.0 0.0 0.00 0.00 0.00 38 1012.8
20260501143714 23 141 0.0 0.0 0.00 0.00 0.00 38 1012.5
20260501142708 22 139 0.0 1.6 0.00 0.00 0.00 40 1012.5